EGJB

Guernsey Airport

Airport
ICAO code
EGJB
IATA Code
GCI
Summary
ICAO Region
EUR
ICAO Territory
Location

Forest, Guernsey

Serving
St. Peter Port
Elevation
336 ft
Coordinates
49° 26' 3" N , 2° 36' 3" W
KCC
Metar
EGJB 180420Z 04006KT 9999 -RA FEW010 SCT018 BKN038 14/13 Q1012

Description

Guernsey Airport is the only one on the Channel Island of Guernsey, a self-governing British Crown Dependency. It is located 2.5 nm west south west of St. Peter Port, the Island's main town.

Climatology

Temperate Marine climate/Oceanic climate (Köppen climate classification Cfb) - Moderately cool summer and comparatively warm winter.

Runways

Designator Length Width Surface Rops
9/27 1463 45 ASP Yes/Yes

SKYbrary Partners:

Safety knowledge contributed by: